This demonstration page uses our WeatherBlox Daily Observations layout. Learn more.

Left ArrowRight Arrow

44.8408, -93.29828

Hourly Observations for October 26, 2021

Temp ( °F °C ) Dew Point ( °F °C ) Humidity (%) Winds ( mph kmh ) Pressure ( in mb ) Visibility ( mi km ) Precip ( " mm )
12:53 am 00:53 Mostly Cloudy 41 5 31 -0.6 67 67 E 3 6 30.17 1022 10 16 N/A
1:53 am 01:53 Mostly Cloudy 42 5.6 31 -0.6 65 65 ESE 9 15 30.16 1021 10 16 N/A
2:53 am 02:53 Mostly Cloudy 42 5.6 32 undefined 68 68 ESE 9 15 30.16 1021 10 16 N/A
3:53 am 03:53 Mostly Cloudy 42 5.6 32 undefined 68 68 ESE 13 20 30.12 1020 10 16 N/A
4:53 am 04:53 Mostly Cloudy 41 5 32 undefined 70 70 SE 7 11 30.14 1021 10 16 N/A
5:53 am 05:53 Mostly Cloudy 41 5 33 0.6 73 73 ESE 9 15 30.14 1021 10 16 N/A
6:53 am 06:53 Mostly Cloudy 40 4.4 33 0.6 77 77 ESE 5 7 30.14 1021 10 16 N/A
7:53 am 07:53 Mostly Cloudy 41 5 33 0.6 73 73 ESE 12 19 30.13 1020 10 16 N/A
8:53 am 08:53 Mostly Cloudy 41 5 33 0.6 73 73 SE 9 15 30.14 1021 10 16 N/A
9:53 am 09:53 Cloudy 42 5.6 33 0.6 71 71 SE 14 22 30.13 1020 10 16 N/A
10:53 am 10:53 Mostly Cloudy 45 7.2 34 1.1 66 66 SE 15 24 30.10 1019 10 16 N/A
11:53 am 11:53 Mostly Cloudy 50 10 34 1.1 54 54 SE 14 22 30.06 1018 10 16 N/A
12:53 pm 12:53 Mostly Sunny 53 11.7 33 0.6 47 47 SSE 21 33 30.03 1017 10 16 N/A
1:53 pm 13:53 Mostly Sunny 56 13.3 32 undefined 40 40 SE 16 26 30.00 1016 10 16 N/A
2:53 pm 14:53 Mostly Sunny 56 13.3 32 undefined 40 40 SE 20 31 29.96 1015 10 16 N/A
3:53 pm 15:53 Mostly Sunny 57 13.9 34 1.1 42 42 ESE 18 30 29.93 1014 10 16 N/A
4:53 pm 16:53 Mostly Sunny 55 12.8 33 0.6 44 44 ESE 17 28 29.91 1013 10 16 N/A
5:53 pm 17:53 Mostly Sunny 53 11.7 33 0.6 47 47 ESE 23 37 29.91 1013 10 16 N/A
6:53 pm 18:53 Mostly Clear 52 11.1 31 -0.6 45 45 ESE 20 31 29.92 1013 10 16 N/A
7:53 pm 19:53 Mostly Clear 50 10 31 -0.6 48 48 ESE 13 20 29.93 1013 10 16 N/A
8:53 pm 20:53 Mostly Cloudy 50 10 31 -0.6 48 48 ESE 13 20 29.92 1013 10 16 N/A
9:53 pm 21:53 Mostly Cloudy 50 10 31 -0.6 48 48 ESE 20 31 29.91 1013 10 16 N/A
10:53 pm 22:53 Mostly Cloudy 50 10 33 0.6 52 52 SE 17 28 29.90 1012 10 16 N/A
11:53 pm 23:53 Cloudy 51 10.6 34 1.1 52 52 SE 18 30 29.88 1012 10 16 N/A

Powered by AerisWeather